Date String (YYYY-MM-DD hh:mm:ss) UTC,Instrument flags,absolute air pressure of the measurement (hPa),sample flow rate (lpm),inlet stack bypass flow (lpm),air temperature of the measurement (°C),ambient temperature measured by the external sensor (°C),aerosol sample conditioner tube jacket temperature (°C),OPC LED temperature (°C),internal box temperature (°C),relative humidity of the measurement (%),span deviation,mass concentration of particles derived from Lorenz-Mie calculation of OPC scattering (μg/m³),mass concentration of particles derived from Lorenz-Mie calculation of OPC scattering (μg/m³),mass concentration of particles derived from Lorenz-Mie calculation of OPC scattering (μg/m³)
DateTimeUTC,F1_M11,P_M11,Q1_M11,Q2_M11,T1_M11,T2_M11,T3_M11,T4_M11,T5_M11,U1_M11,ZSPAN_M11,X0_M11,X2_M11,X1_M11
2023-06-15 12:00:00,SystemResetWarning,0825.2,5.01,000.00,030.2,028.6,000.0,038.8,031.7,21.0,0000.0,0004.97,0001.83,0001.26
2023-06-15 12:01:00,SystemResetWarning,0825.1,5.00,000.00,030.2,028.6,000.0,038.8,031.7,20.8,0000.0,0005.12,0001.87,0001.28
2023-06-15 12:02:00,SystemResetWarning,0825.1,5.00,000.00,030.2,028.6,000.0,038.8,031.7,20.8,0000.0,0005.23,0001.89,0001.30
2023-06-15 12:03:00,SystemResetWarning,0825.2,5.00,000.00,030.3,028.6,000.0,038.9,031.8,20.7,0000.0,0005.30,0001.92,0001.31
2023-06-15 12:04:00,SystemResetWarning,0825.2,5.00,000.00,030.3,028.6,000.0,038.9,031.7,20.8,0000.0,0005.25,0001.90,0001.30
2023-06-15 12:05:00,SystemResetWarning,0825.2,5.00,000.00,030.3,028.6,000.0,038.9,031.7,20.9,0000.0,0005.17,0001.88,0001.30
2023-06-15 12:06:00,SystemResetWarning,0825.2,5.00,000.00,030.3,028.6,000.0,038.9,031.8,21.0,0000.0,0004.95,0001.89,0001.31
2023-06-15 12:07:00,SystemResetWarning,0825.2,5.00,000.00,030.3,028.7,000.0,038.9,031.8,21.1,0000.0,0005.01,0001.91,0001.29
2023-06-15 12:08:00,SystemResetWarning,0825.2,5.00,000.00,030.3,028.7,000.0,038.9,031.8,21.1,0000.0,0004.01,0001.86,0001.29
2023-06-15 12:09:00,SystemResetWarning,0825.2,4.99,000.00,030.3,028.7,000.0,038.9,031.7,21.2,0000.0,0003.54,0001.84,0001.30
2023-06-15 12:10:00,SystemResetWarning,0825.2,5.00,000.00,030.3,028.7,000.0,038.9,031.8,21.2,0000.0,0003.63,0001.85,0001.31
2023-06-15 12:11:00,SystemResetWarning,0825.2,5.00,000.00,030.3,028.7,000.0,038.9,031.8,21.1,0000.0,0003.70,0001.81,0001.30
2023-06-15 12:12:00,SystemResetWarning,0825.2,5.00,000.00,030.3,028.7,000.0,038.9,031.8,21.1,0000.0,0003.59,0001.78,0001.30
2023-06-15 12:13:00,SystemResetWarning,0825.2,5.01,000.00,030.3,028.7,000.0,038.9,031.8,21.0,0000.0,0003.60,0001.84,0001.31
2023-06-15 12:14:00,SystemResetWarning,0825.2,5.00,000.00,030.3,028.7,000.0,038.9,031.8,20.9,0000.0,0003.61,0001.85,0001.32
2023-06-15 12:15:00,SystemResetWarning,0825.2,4.99,000.00,030.3,028.7,000.0,038.9,031.7,20.8,0000.0,0004.79,0001.87,0001.33
2023-06-15 12:16:00,SystemResetWarning,0825.2,5.00,000.00,030.3,028.7,000.0,038.9,031.8,20.6,0000.0,0004.79,0001.88,0001.35
2023-06-15 12:17:00,SystemResetWarning,0825.2,5.00,000.00,030.3,028.7,000.0,038.9,031.7,20.5,0000.0,0004.69,0001.85,0001.34
2023-06-15 12:18:00,SystemResetWarning,0825.2,5.00,000.00,030.3,028.7,000.0,038.9,031.8,20.5,0000.0,0004.61,0001.84,0001.35
2023-06-15 12:19:00,SystemResetWarning,0825.2,5.00,000.00,030.3,028.7,000.0,038.9,031.8,20.4,0000.0,0004.78,0001.87,0001.36
2023-06-15 12:20:00,SystemResetWarning,0825.2,5.00,000.00,030.3,028.7,000.0,038.9,031.8,20.3,0000.0,0004.60,0001.87,0001.37
2023-06-15 12:21:00,SystemResetWarning,0825.2,5.00,000.00,030.4,028.7,000.0,038.9,031.8,20.2,0000.0,0004.72,0001.84,0001.36
2023-06-15 12:22:00,SystemResetWarning,0825.2,5.00,000.00,030.4,028.7,000.0,038.9,031.8,20.2,0000.0,0004.62,0001.82,0001.35
2023-06-15 12:23:00,SystemResetWarning,0825.2,5.00,000.00,030.4,028.7,000.0,038.9,031.8,20.1,0000.0,0005.09,0001.83,0001.34
2023-06-15 12:24:00,SystemResetWarning,0825.2,5.00,000.00,030.4,028.7,000.0,039.0,031.9,20.1,0000.0,0005.94,0001.82,0001.33
2023-06-15 12:25:00,SystemResetWarning,0825.3,5.00,000.00,030.4,028.7,000.0,039.0,031.9,20.1,0000.0,0005.89,0001.79,0001.32
2023-06-15 12:26:00,SystemResetWarning,0825.2,5.00,000.00,030.4,028.7,000.0,039.0,031.9,20.3,0000.0,0005.18,0001.83,0001.32
2023-06-15 12:27:00,SystemResetWarning,0825.2,5.00,000.00,030.4,028.7,000.0,039.0,031.9,20.1,0000.0,0004.85,0001.84,0001.31
2023-06-15 12:28:00,SystemResetWarning,0825.2,5.00,000.00,030.4,028.7,000.0,039.0,031.9,19.8,0000.0,0004.84,0001.84,0001.32
2023-06-15 12:29:00,SystemResetWarning,0825.2,5.00,000.00,030.4,028.7,000.0,039.0,031.9,19.6,0000.0,0004.77,0001.80,0001.31
2023-06-15 12:30:00,SystemResetWarning,0825.2,5.00,000.00,030.4,028.7,000.0,039.0,031.9,19.5,0000.0,0004.78,0001.76,0001.28
2023-06-15 12:31:00,SystemResetWarning,0825.2,5.00,000.00,030.4,028.7,000.0,039.0,031.9,19.5,0000.0,0004.64,0001.73,0001.25
2023-06-15 12:32:00,SystemResetWarning,0825.2,5.00,000.00,030.4,028.7,000.0,039.0,031.9,19.4,0000.0,0004.42,0001.75,0001.23
2023-06-15 12:33:00,SystemResetWarning,0825.2,5.00,000.00,030.4,028.8,000.0,039.0,031.8,19.3,0000.0,0004.36,0001.74,0001.22
2023-06-15 12:34:00,SystemResetWarning,0825.2,5.00,000.00,030.4,028.8,000.0,039.0,031.9,19.2,0000.0,0004.31,0001.71,0001.21
2023-06-15 12:35:00,SystemResetWarning,0825.2,5.01,000.00,030.4,028.8,000.0,039.0,031.9,19.2,0000.0,0003.00,0001.67,0001.20
2023-06-15 12:36:00,SystemResetWarning,0825.2,5.00,000.00,030.4,028.8,000.0,039.0,031.9,19.1,0000.0,0002.95,0001.65,0001.19
2023-06-15 12:37:00,SystemResetWarning,0825.2,5.00,000.00,030.4,028.8,000.0,039.0,031.9,19.3,0000.0,0002.87,0001.60,0001.18
2023-06-15 12:38:00,SystemResetWarning,0825.3,4.99,000.00,030.4,028.8,000.0,039.0,031.9,19.8,0000.0,0002.88,0001.57,0001.16
2023-06-15 12:39:00,SystemResetWarning,0825.3,5.00,000.00,030.4,028.8,000.0,039.0,031.9,20.1,0000.0,0002.91,0001.57,0001.15
2023-06-15 12:40:00,SystemResetWarning,0825.3,5.00,000.00,030.4,028.8,000.0,039.0,032.0,21.2,0000.0,0003.03,0001.57,0001.13
2023-06-15 12:41:00,SystemResetWarning,0825.3,5.00,000.00,030.5,028.8,000.0,039.0,032.0,20.6,0000.0,0003.09,0001.57,0001.13
2023-06-15 12:42:00,SystemResetWarning,0825.4,5.01,000.00,030.5,028.8,000.0,039.1,032.0,19.8,0000.0,0003.82,0001.56,0001.14
2023-06-15 12:43:00,SystemResetWarning,0825.3,5.00,000.00,030.5,028.8,000.0,039.1,032.0,19.9,0000.0,0003.97,0001.52,0001.12
2023-06-15 12:44:00,SystemResetWarning,0825.4,5.01,000.00,030.5,028.8,000.0,039.1,031.9,20.2,0000.0,0003.95,0001.51,0001.12
2023-06-15 12:45:00,SystemResetWarning,0825.4,5.01,000.00,030.5,028.8,000.0,039.1,031.9,21.0,0000.0,0004.13,0001.52,0001.12
2023-06-15 12:46:00,SystemResetWarning,0825.4,5.00,000.00,030.5,028.8,000.0,039.1,031.9,22.2,0000.0,0004.43,0001.49,0001.11
2023-06-15 12:47:00,SystemResetWarning,0825.4,4.99,000.00,030.5,028.8,000.0,039.1,031.9,22.0,0000.0,0004.31,0001.46,0001.11
2023-06-15 12:48:00,SystemResetWarning,0825.4,4.99,000.00,030.5,028.8,000.0,039.1,031.9,20.8,0000.0,0004.33,0001.47,0001.10
2023-06-15 12:49:00,SystemResetWarning,0825.4,5.00,000.00,030.5,028.8,000.0,039.1,031.9,19.8,0000.0,0004.27,0001.48,0001.10
2023-06-15 12:50:00,SystemResetWarning,0825.4,5.00,000.00,030.5,028.8,000.0,039.1,032.0,19.4,0000.0,0004.16,0001.45,0001.09
2023-06-15 12:51:00,SystemResetWarning,0825.4,5.01,000.00,030.5,028.8,000.0,039.1,031.9,19.4,0000.0,0004.02,0001.41,0001.09
2023-06-15 12:52:00,SystemResetWarning,0825.4,5.00,000.00,030.5,028.8,000.0,039.1,031.9,19.2,0000.0,0003.81,0001.41,0001.09
2023-06-15 12:53:00,SystemResetWarning,0825.4,5.01,000.00,030.5,028.8,000.0,039.1,031.9,18.9,0000.0,0003.35,0001.39,0001.08
2023-06-15 12:54:00,SystemResetWarning,0825.4,5.00,000.00,030.5,028.8,000.0,039.1,031.9,18.7,0000.0,0003.11,0001.40,0001.08
2023-06-15 12:55:00,SystemResetWarning,0825.4,4.99,000.00,030.5,028.8,000.0,039.1,031.9,18.7,0000.0,0003.38,0001.40,0001.08
2023-06-15 12:56:00,SystemResetWarning,0825.5,5.00,000.00,030.5,028.8,000.0,039.1,031.9,18.8,0000.0,0003.28,0001.39,0001.07
2023-06-15 12:57:00,SystemResetWarning,0825.5,5.00,000.00,030.5,028.8,000.0,039.1,031.9,18.8,0000.0,0002.80,0001.41,0001.08
2023-06-15 12:58:00,SystemResetWarning,0825.5,5.00,000.00,030.5,028.8,000.0,039.1,031.9,18.7,0000.0,0002.83,0001.43,0001.08
2023-06-15 12:59:00,SystemResetWarning,0825.5,5.01,000.00,030.5,028.8,000.0,039.1,032.0,18.5,0000.0,0002.86,0001.42,0001.07
